Back to catalog

THOR ABLESTAR DEB

AliveLEO
NORAD 120·DEBRIS·🇺🇸 United States

Launched Jun 29, 1961 from Cape Canaveral Space Force Station

Loading…

Next Passes (next 24 hours)

TLE

FreshSource: Space-Track

Epoch: Sep 14, 2026, 13:38 UTC

1 00120U 61015E   26257.56813118  .00000428  00000-0  18633-3 0  9999
2 00120  66.7046 197.9129 0116753 298.1721  60.7622 14.29677498361106

Track THOR ABLESTAR DEB in real time with AllMySat

Download on the App Store